TimeCDT,TemperatureF,Dew PointF,Humidity,Sea Level PressureIn,VisibilityMPH,Wind Direction,Wind SpeedMPH,Gust SpeedMPH,PrecipitationIn,Events,Conditions,WindDirDegrees,DateUTC
12:53 AM,72.0,55.9,57,29.82,10.0,SE,9.2,-,N/A,,Clear,140,2013-09-27 05:53:00
1:53 AM,71.1,57.0,61,29.83,10.0,SSE,6.9,-,N/A,,Scattered Clouds,150,2013-09-27 06:53:00
2:53 AM,71.1,59.0,66,29.84,10.0,SE,6.9,-,N/A,,Overcast,140,2013-09-27 07:53:00
3:53 AM,72.0,61.0,68,29.83,10.0,SE,9.2,-,N/A,,Overcast,140,2013-09-27 08:53:00
4:53 AM,71.1,63.0,75,29.83,10.0,SE,9.2,-,N/A,,Mostly Cloudy,140,2013-09-27 09:53:00
5:53 AM,71.1,64.0,78,29.84,10.0,SE,9.2,-,N/A,,Scattered Clouds,140,2013-09-27 10:53:00
6:53 AM,70.0,64.9,84,29.85,10.0,SE,6.9,-,N/A,,Partly Cloudy,140,2013-09-27 11:53:00
7:53 AM,70.0,66.0,87,29.86,10.0,SSE,5.8,-,N/A,,Clear,150,2013-09-27 12:53:00
8:53 AM,73.9,68.0,82,29.88,10.0,SE,8.1,-,N/A,,Partly Cloudy,140,2013-09-27 13:53:00
9:13 AM,75.2,69.8,83,29.91,10.0,SSE,12.7,-,N/A,,Mostly Cloudy,160,2013-09-27 14:13:00
9:38 AM,75.2,69.8,83,29.91,10.0,SSE,15.0,-,N/A,,Scattered Clouds,160,2013-09-27 14:38:00
9:53 AM,77.0,69.1,76,29.88,10.0,SSE,10.4,-,N/A,,Partly Cloudy,160,2013-09-27 14:53:00
10:53 AM,80.1,69.1,69,29.89,10.0,SSE,15.0,21.9,N/A,,Scattered Clouds,160,2013-09-27 15:53:00
11:01 AM,80.6,69.8,70,29.92,10.0,South,15.0,21.9,N/A,,Mostly Cloudy,170,2013-09-27 16:01:00
11:33 AM,80.6,69.8,70,29.92,10.0,South,11.5,23.0,N/A,,Overcast,170,2013-09-27 16:33:00
11:53 AM,81.0,70.0,69,29.88,10.0,SE,13.8,20.7,N/A,,Mostly Cloudy,140,2013-09-27 16:53:00
12:53 PM,82.0,70.0,67,29.86,10.0,South,8.1,-,N/A,,Overcast,170,2013-09-27 17:53:00
1:53 PM,86.0,68.0,55,29.84,10.0,SSE,16.1,25.3,N/A,,Mostly Cloudy,160,2013-09-27 18:53:00
2:53 PM,86.0,68.0,55,29.81,10.0,SSE,18.4,25.3,N/A,,Overcast,150,2013-09-27 19:53:00
3:53 PM,86.0,69.1,57,29.80,10.0,SSE,12.7,-,N/A,,Overcast,150,2013-09-27 20:53:00
4:53 PM,87.1,69.1,55,29.79,10.0,SSE,16.1,24.2,N/A,,Overcast,160,2013-09-27 21:53:00
5:53 PM,84.9,70.0,61,29.78,10.0,SE,11.5,25.3,N/A,,Overcast,130,2013-09-27 22:53:00
6:53 PM,82.9,70.0,65,29.78,10.0,SE,17.3,25.3,N/A,,Scattered Clouds,140,2013-09-27 23:53:00
7:53 PM,82.0,69.1,65,29.78,10.0,SE,11.5,-,N/A,,Overcast,140,2013-09-28 00:53:00
8:53 PM,82.0,70.0,67,29.80,10.0,SSE,9.2,-,N/A,,Overcast,150,2013-09-28 01:53:00
9:53 PM,81.0,70.0,69,29.81,10.0,SE,10.4,-,N/A,,Overcast,130,2013-09-28 02:53:00
10:53 PM,80.1,71.1,74,29.81,10.0,SE,15.0,-,N/A,,Overcast,140,2013-09-28 03:53:00
11:53 PM,79.0,72.0,79,29.82,10.0,SE,10.4,19.6,N/A,,Scattered Clouds,140,2013-09-28 04:53:00